TimeCDT,TemperatureF,Dew PointF,Humidity,Sea Level PressureIn,VisibilityMPH,Wind Direction,Wind SpeedMPH,Gust SpeedMPH,PrecipitationIn,Events,Conditions,WindDirDegrees,DateUTC
12:53 AM,57.9,54.0,87,30.22,10.0,Calm,Calm,-,N/A,,Clear,0,2013-05-25 05:53:00
1:53 AM,57.9,53.1,84,30.22,10.0,Calm,Calm,-,N/A,,Clear,0,2013-05-25 06:53:00
2:53 AM,57.9,52.0,81,30.21,10.0,Calm,Calm,-,N/A,,Clear,0,2013-05-25 07:53:00
3:53 AM,57.0,52.0,83,30.22,10.0,Calm,Calm,-,N/A,,Clear,0,2013-05-25 08:53:00
4:53 AM,55.9,52.0,87,30.21,10.0,Calm,Calm,-,N/A,,Clear,0,2013-05-25 09:53:00
5:53 AM,57.9,52.0,81,30.22,10.0,Calm,Calm,-,N/A,,Clear,0,2013-05-25 10:53:00
6:53 AM,61.0,53.1,75,30.26,10.0,Calm,Calm,-,N/A,,Mostly Cloudy,0,2013-05-25 11:53:00
7:53 AM,63.0,53.1,70,30.26,10.0,Calm,Calm,-,N/A,,Overcast,0,2013-05-25 12:53:00
8:53 AM,64.0,53.1,67,30.27,10.0,East,5.8,-,N/A,,Overcast,90,2013-05-25 13:53:00
9:53 AM,69.1,54.0,58,30.24,10.0,Variable,4.6,-,N/A,,Clear,0,2013-05-25 14:53:00
10:53 AM,72.0,55.9,57,30.23,10.0,Variable,3.5,-,N/A,,Clear,0,2013-05-25 15:53:00
11:53 AM,75.0,55.9,51,30.22,10.0,Calm,Calm,-,N/A,,Clear,0,2013-05-25 16:53:00
12:53 PM,77.0,57.0,50,30.22,10.0,SE,5.8,-,N/A,,Clear,130,2013-05-25 17:53:00
1:53 PM,80.1,59.0,48,30.19,10.0,Calm,Calm,-,N/A,,Partly Cloudy,0,2013-05-25 18:53:00
2:53 PM,81.0,61.0,50,30.17,10.0,Variable,4.6,-,N/A,,Scattered Clouds,0,2013-05-25 19:53:00
3:53 PM,82.0,61.0,49,30.16,10.0,ESE,4.6,-,N/A,,Clear,120,2013-05-25 20:53:00
4:53 PM,82.0,62.1,51,30.14,10.0,Variable,4.6,-,N/A,,Clear,0,2013-05-25 21:53:00
5:53 PM,81.0,62.1,52,30.12,10.0,Variable,3.5,-,N/A,,Clear,0,2013-05-25 22:53:00
6:53 PM,79.0,62.1,56,30.11,10.0,Variable,3.5,-,N/A,,Clear,0,2013-05-25 23:53:00
7:53 PM,75.9,62.1,62,30.09,10.0,Variable,3.5,-,N/A,,Clear,0,2013-05-26 00:53:00
8:53 PM,73.9,61.0,64,30.08,10.0,East,4.6,-,N/A,,Clear,90,2013-05-26 01:53:00
9:53 PM,73.0,61.0,66,30.10,10.0,Variable,3.5,-,N/A,,Clear,0,2013-05-26 02:53:00
10:53 PM,72.0,61.0,68,30.12,10.0,East,4.6,-,N/A,,Clear,90,2013-05-26 03:53:00
11:53 PM,70.0,60.1,71,30.12,10.0,Calm,Calm,-,N/A,,Clear,0,2013-05-26 04:53:00